星链-5630 (STARLINK-5630 )

导读

STARLINK-5630是美国太空探索技术公司(SpaceX)星链(Starlink)卫星互联网项目的卫星,于2023年1月31日发射入轨,属于星链低轨道卫星星座组网卫星,承担卫星互联网信号传输任务。星链旨在为全球提供覆盖广泛的高速互联网服务,该卫星是星链星座建设过程中发射的组网卫星之一,目前已在轨运行多年。

Basic Information
目录编号:
55406
目录名称:
STARLINK-5630
国际标识:
2023-014R
轨道中心:
EARTH
卫星名称:
星链-5630
卫星全名:
星链-5630 (STARLINK-5630 )
卫星状态:
在轨 (已飞行1312 天)
发射日期:
2023-01-31 UTC
国别 :
美国 (US)
星等 :
--
Orbit Information
数据来源 国际轨道数据 AOE轨道数据
星历时间 2026-09-04T13:12:33+0800
12小时前
查看轨道信息
2026-09-02T04:00:00+0800
2天前
查看轨道信息
半长轴 6950.218km 6950.187km
偏心率 0.000347 0.0003509
轨道倾角 70.000° 70.000°
近地点辐角 272.463° 266.053°
升交点赤经 334.467° 340.474°
平近点角 87.613° 200.043°
近地点 569.669km 569.611km
远地点 574.493km 574.489km
周期 96.107分钟 96.107分钟
每日圈数 14.983222 14.983321
Detailed Information
固有亮度:
5
最大亮度:
2.5
卫星平台:
Starlink v1.5
覆盖范围:
全球
运营商:
太空探索技术公司
运营商所在国:
美国
制造商(研发单位):
太空探索技术公司
制造商所在国:
美国
使用方式:
暂无
Satellite Introduction
星链(Starlink)计划是由太空探索技术公司(SpaceX)提出的一个巨型低轨卫星互联网星座项目,计划在2019年至2024年间在太空搭建由约1.2万颗卫星组成的“星链”网络,其中1584颗将部署在地球上空550千米处的近地轨道,并从2020年开始工作。该卫星仍在工作。
2D Orbit Map
3D Orbit Map
Orbit Altitude Analysis Chart
Orbit Inclination Analysis Chart
Orbit Comprehensive Analysis Chart
View Comprehensive Chart
Conjunction Data List
Event ID Objects TCA Miss Dist (km) Collision Risk Probability Collision Risk Index (CRI) Action
CDM_260903-122305-540606-722822
2026-09-03T
12:23:19+0000
0.528 km
远距离
1.637411E-4 高风险 0.79
CDM_260906-041805-540606-326321
SOAP (63263)
2026-09-06T
04:18:22+0000
0.953 km
远距离
3.231749E-5 中风险 0.65
CDM_260907-030805-540606-978921
2026-09-07T
03:08:56+0000
1.428 km
极远距离
3.970981E-6 低风险 0.47